Welcome to the New NWS' Forecast!
Most changes are behind the scenes, but click here for differences you might notice.

Regional Weather Roundup (RWR)

Issued by Gray - Portland, ME (GYX)

                            
445 
ASUS41 KGYX 151305
RWRGYX
WEATHER ROUNDUP FOR MAINE AND NEW HAMPSHIRE
NATIONAL WEATHER SERVICE GRAY ME
900 AM EDT SUN JUL 15 2018

MEZ002-005-006-010-012-015-018-020-021-024-026-027-029-151400-
MAINE
  
CITY           SKY/WX    TMP DP  RH WIND       PRES   REMARKS
PORTLAND       CLOUDY    67  64  90 CALM      30.00S                  
SANFORD        CLOUDY    66  64  93 CALM      30.00F                  
BAR HARBOR     CLOUDY    65  59  81 S7        30.02F                  
WISCASSET      CLOUDY    66  63  90 S3        30.01F                  
ROCKLAND       CLOUDY    64  61  90 SE6       30.01F                  
FRYEBURG       FAIR      69  62  78 CALM      30.00F                  
LEWISTONAUBURN CLOUDY    66  62  87 CALM      30.00F                  
AUGUSTA        CLOUDY    66  61  84 S3        30.00F                  
WATERVILLE     CLOUDY    65  61  87 S5        29.98F                  
BANGOR         CLOUDY    65  58  78 S6        30.00F                  
GREENVILLE       N/A     62  58  86 CALM      29.98S                  
MILLINOCKET    PTSUNNY   66  58  75 VRB3      29.99F                  
HOULTON        PTSUNNY   65  57  75 SW3       29.97F                  
PRESQUE ISLE   CLOUDY    63  55  75 SE5       29.98S                  
FRENCHVILLE    CLOUDY    64  56  75 SE6       29.96S                  
CARIBOU        CLOUDY    63  54  72 S8        29.96F                  
$$

NHZ002-005-008-009-011-012-014-151400-
NEW HAMPSHIRE
  
CITY           SKY/WX    TMP DP  RH WIND       PRES   REMARKS
PORTSMOUTH     CLOUDY    67  65  96 CALM      29.97F FOG              
ROCHESTER      CLOUDY    67  66  97 SE3       29.98F                  
NASHUA         CLOUDY    68  67  96 CALM      30.00S                  
MANCHESTER     PTSUNNY   70  64  81 VRB3      29.97F                  
CONCORD        CLOUDY    70  63  78 CALM      29.99F                  
LACONIA          N/A     69  62  78 CALM      29.99F                  
PLYMOUTH       CLOUDY    69  60  72 CALM      29.99F                  
BERLIN         CLOUDY    68  62  81 CALM      30.01S                  
WHITEFIELD     CLOUDY    69  64  84 CALM      30.01S                  
JAFFREY        FOG       66  65  96 CALM      30.02S VSB 3/4          
KEENE          FAIR      79  70  74 CALM      29.98F                  
LEBANON        CLOUDY   N/A N/A N/A CALM      29.99S FOG              
MT WASHINGTON  FOG       54  54 100 NW25        N/A  VSB 0            
$$

VTZ005-007-008-151400-
VERMONT
  
CITY           SKY/WX    TMP DP  RH WIND       PRES   REMARKS
ST JOHNSBURY     N/A     69  65  86 MISG      29.97F                  
MONTPELIER     CLOUDY    69  67  93 CALM      30.04R                  
BURLINGTON     FAIR      80  67  64 S8        29.96S                  
$$

MAZ007-012-024-CTZ003-RIZ002-NYZ038-NYZ072-151400-
SOUTHERN NEW ENGLAND AND NY
  
CITY           SKY/WX    TMP DP  RH WIND       PRES   REMARKS
BOSTON         CLOUDY    70  65  84 SE3       29.98F                  
WORCESTER      SUNNY     75  68  78 MISG      30.00F                  
NANTUCKET      FAIR      65  59  81 SE6       30.00F                  
PROVIDENCE     FAIR      72  68  87 VRB3      29.99F                  
HARTFORD       PTSUNNY   76  71  85 SW5       29.98S                  
ALBANY         PTSUNNY   77  69  76 S5        29.99F                  
NEW YORK CITY  LGT RAIN  73  67  81 SW9       30.00F                  
$$

ANZ081-ANZ082-ANZ150-NHZ014-MEZ023>029-151400-
COASTAL MARINE OBSERVATIONS
  
STATION/POSITION TIME  TEMP    WIND        PRES    WAVE
                       AIR SEA DIR/SP/G            HT/PER
                 (UTC) (F)     (DEG/KT/KT) (MB)    (FT/S)
MOUNT DESERT ROC 1300   61      CALM  /  2 1016.6F
MATINICUS ROCK   1200   61     150/  9/  9 1015.8F
ISLE OF SHOALS   1200   65     190/  9/ 10 1015.3R
JEFFREYS LEDGE   1206      66                N/A     3/11
$$

.............KEY..............
   WCI - WIND CHILL
   TC  - TEMPERATURE IN CELSIUS
   VSB - VISIBILITY IN MILES
   HX  - HEAT INDEX
   FAIR- INDICATES FEW OR NO CLOUDS BELOW 12,000 FT, WITH NO 
         SIGNIFICANT WEATHER AND/OR OBSTRUCTIONS TO VISIBILITY.